Location: Kitchener
(43.4500°N, 80.5000°W)
Time: 10:17:30
(UTC-05:00)

OTV 5 (USA 277) - Visible Passes

Search period start: 21 February 2018 00:00
Search period end: 03 March 2018 00:00
Orbit: 404 x 417 km, 43.0° (Epoch: 07 September)

Date Brightness Start Highest point End Pass type
(mag) Time Alt. Az. Time Alt. Az. Time Alt. Az.
21 Feb ? 06:07:41 10° SW 06:10:37 30° SSE 06:13:33 10° E visible
22 Feb ? 05:19:05 21° SSE 05:19:40 22° SSE 05:22:17 10° E visible
23 Feb ? 04:30:34 11° ESE 04:30:34 11° ESE 04:30:48 10° ESE visible
23 Feb ? 06:03:20 17° WSW 06:05:38 53° SSE 06:08:51 10° E visible
24 Feb ? 05:14:44 40° SSE 05:14:44 40° SSE 05:17:45 10° E visible
25 Feb ? 04:26:04 13° E 04:26:04 13° E 04:26:36 10° E visible
25 Feb ? 05:58:49 23° WSW 06:00:45 78° S 06:04:03 10° E visible
26 Feb ? 05:10:07 58° ESE 05:10:07 58° ESE 05:12:59 10° E visible
27 Feb ? 04:21:23 14° E 04:21:23 14° E 04:21:55 10° E visible
27 Feb ? 05:54:08 25° W 05:55:56 85° S 05:59:13 10° E visible
28 Feb ? 05:05:23 60° E 05:05:23 60° E 05:08:10 10° E visible
01 Mar ? 04:16:38 13° E 04:16:38 13° E 04:17:06 10° E visible
01 Mar ? 05:49:24 26° W 05:51:05 71° S 05:54:22 10° ESE visible
02 Mar ? 05:00:41 54° ESE 05:00:41 54° ESE 05:03:20 10° E visible
